Tracking 19575 objects as of 20-Feb-2019
HD Live streaming from Space Station
objects crossing your sky now

COSMOS 2340

Track COSMOS 2340 now!
COSMOS 2340 is classified as:


NORAD ID: 24761
Int'l Code: 1997-015A
Perigee: 3,294.5 km
Apogee: 37,075.9 km
Inclination: 67.2 °
Period: 717.8 minutes
Semi major axis: 26556 km
RCS: 6.3095 m2 (large)
Launch date: April 9, 1997
Source: Commonwealth of Independent States (former USSR) (CIS)
Launch site: PLESETSK MISSILE AND SPACE COMPLEX (PKMTR)
aabbcc
Your satellite tracking list
Your tracking list is empty




NASA's NSSDC Master Catalog

Two Line Element Set (TLE):
1 24761U 97015A   19050.43116161 -.00000618 +00000-0 +00000-0 0  9996
2 24761 067.2222 017.8334 6360364 188.0122 152.7782 02.00610806160191
Source of the keplerian elements: AFSPC